LiveATC.Net - Listen to live air traffic control over the Internet!


ICAO: KSEE  IATA: SEE   Airport: Gillespie Field Airport
City: San Diego/El Cajon   State/Province: California
Country: United States   Continent: North America
KSEE METAR Weather: KSEE 241447Z 00000KT 10SM SKC 12/10 A2994
KSEE Flight Activity (FlightAware)
KSEE Airport Info   (iFlightPlanner)
KSEE VFR Sectional Chart   (iFlightPlanner) 
KSEE IFR Low Altitude Chart   (iFlightPlanner) 
KSEE IFR High Altitude Chart   (iFlightPlanner) 

KSEE Tower
Feed Status: DOWN
Last heard on: 2021-10-23 18:39:05 (0 days 20 hours 57 minutes ago)
Archive Access: KSEE Tower
FacilityFrequency
Gillespie Tower120.700
Gillespie Tower123.800
Sponsored by: Fly the Wing Flight Training


NOTICE

Unauthorized use prohibited. See LiveATC.net Terms of Service


Airport/ARTCC Code
Frequency Search
(e.g., 124.400, 128.75)
Site-wide search
 


Browse Feeds
Top 50 Feeds
HF Oceanic Feeds
Coverage Map
Bad Weather Areas

LiveATC FAQ
Offer LiveATC feed
Contact LiveATC.net
Press Inquiries

LiveATC on iPhone
LiveATC on Android

Windows Phone
Windows 8/10

LiveATC Mobile
(Mobile browser)

ATC Audio Archives
Interesting Recordings

LiveATC Forums


Home Page
About LiveATC.net
Make a Donation
Terms of Use
Privacy Policy

Canadian Air Freqs

AIRMETs/SIGMETs

FAA Airport Status
NAS Status
Arrival Demand


Server Software By:
Icecast.org
Liquidsoap